Temp
17 16 16 16 16 16 16 17 17 17 17 17 17 16 16 15 16 15 15 13 13 13 13 13 13 13 12 11 11 11 10 10 9 9 9 9 8 9 9 8 8 8 8 8
16 16 16 16 16 16 17 16 16 17 17 18 18 18 16 16 15 15 14 14 14 14 13 13 14 13 13 12 11 11 10 10 9 9 9 9 9 8 8 9 9 8 8 9
17 17 17 16 16 16 16 16 17 17 18 18 18 18 18 18 16 15 15 14 13 13 13 13 13 12 12 12 11 10 10 10 10 9 10 9 9 9 9 9 10 9 10 10
16 17 17 16 16 16 16 16 17 17 18 17 17 18 19 19 18 17 15 15 13 13 12 13 12 12 12 12 11 10 10 10 10 10 10 10 9 10 9 9 9 10 10 10
16 16 17 17 16 16 16 17 17 17 18 17 17 16 19 19 19 18 17 15 14 13 12 12 13 13 12 12 11 11 10 10 10 10 9 9 10 10 9 8 8 9 10 10
15 15 16 16 16 16 16 17 17 18 17 17 16 16 18 19 19 18 17 16 14 13 12 13 13 12 12 12 11 10 10 10 9 10 9 9 9 10 10 9 9 9 9 9
14 14 15 15 15 16 16 17 18 18 18 19 16 15 18 19 19 18 17 16 15 14 13 13 13 12 12 12 11 11 10 9 9 10 10 9 9 9 9 9 8 9 9 9
14 15 15 15 15 16 17 17 18 17 18 18 16 17 18 19 18 18 17 17 16 15 14 13 13 12 12 12 11 11 10 9 9 9 9 10 9 8 9 8 8 8 8 8
14 14 15 15 15 15 16 16 17 17 16 16 16 17 18 19 18 18 17 16 15 15 15 14 13 12 13 12 11 11 10 10 9 9 10 9 9 9 9 9 8 9 8 9
14 14 15 15 15 15 16 17 17 17 17 17 16 15 18 19 18 17 16 15 15 15 14 13 12 12 12 11 11 11 11 10 11 10 9 9 9 10 9 9 9 8 8 8
13 14 14 15 15 16 16 16 16 17 17 19 18 18 19 18 18 17 16 15 15 15 14 13 13 12 12 12 12 11 10 11 10 10 9 9 9 9 9 8 8 8 8 8
14 14 14 14 15 15 15 16 16 17 15 15 16 18 19 18 18 18 16 14 14 14 14 13 13 12 11 11 11 11 11 10 10 9 9 9 9 9 9 9 8 8 8 8
14 13 14 14 14 15 15 16 16 17 17 16 18 18 18 18 18 18 16 14 14 14 13 13 13 12 11 11 10 10 10 10 10 9 9 9 9 9 9 9 8 9 9 9
14 14 14 15 15 15 15 16 16 16 16 17 17 18 18 18 18 18 16 14 14 13 13 13 12 11 11 10 10 10 10 10 10 9 9 9 9 9 9 9 9 9 9 9
14 14 14 15 15 15 15 16 16 16 16 17 18 18 18 18 18 18 16 15 14 13 13 12 12 11 10 10 10 10 9 9 9 9 9 8 9 9 9 9 9 9 8 9
14 14 15 15 16 16 15 16 16 16 16 16 17 18 18 18 18 18 16 15 14 13 12 11 11 10 10 10 10 9 9 8 8 8 8 8 9 9 9 9 8 8 8 8
14 14 15 15 16 15 14 15 16 16 17 17 17 18 18 18 18 17 16 15 14 13 12 11 11 10 10 9 9 9 8 8 8 8 9 9 9 9 9 8 8 8 7 7
14 14 14 15 14 15 16 16 16 16 17 17 17 18 18 17 17 15 15 14 13 13 11 11 10 10 10 9 9 8 8 8 8 8 8 8 8 8 8 7 7 7 6 6
14 14 14 14 14 15 16 17 17 17 17 17 17 18 18 17 16 16 15 14 13 11 11 10 10 9 9 9 8 8 8 7 8 8 8 8 8 7 7 7 6 6 6 6
15 14 14 14 14 15 16 17 17 17 16 17 17 17 17 17 16 16 15 14 13 12 11 10 10 9 8 8 8 8 7 8 8 8 8 7 7 6 6 6 6 6 5 5
14 14 14 14 14 15 16 16 16 15 16 17 17 17 17 16 16 15 15 14 12 11 11 10 10 9 9 9 8 7 8 8 8 7 7 6 6 5 6 5 5 5 4 4
13 14 14 14 13 15 16 16 16 17 17 17 17 16 16 15 15 15 14 14 13 12 11 10 9 9 9 8 7 7 8 7 7 6 6 5 5 5 5 5 4 4 3 3
12 13 14 14 15 16 16 17 17 17 16 17 16 16 15 15 14 14 13 13 12 11 11 10 9 9 8 7 7 7 7 7 6 6 5 5 5 5 4 4 3 3 3 3
13 13 13 14 15 16 16 16 17 16 16 16 16 16 15 15 14 13 12 12 11 10 10 9 8 8 7 7 7 7 7 6 5 5 5 5 4 4 3 3 3 3 2 2
12 12 13 14 15 15 16 16 16 16 16 15 15 15 15 14 13 12 12 11 10 10 9 8 7 7 7 7 7 7 6 5 5 5 4 4 3 3 2 2 2 2 2 1
12 12 12 13 15 15 15 16 16 16 16 16 15 14 13 13 12 11 11 11 10 9 8 7 7 7 7 7 7 6 5 5 5 4 3 3 2 2 2 2 1 2 1 1
Height
3178 3182 3183 3185 3186 3187 3187 3188 3188 3187 3185 3181 3180 3180 3181 3184 3185 3186 3187 3187 3187 3186 3186 3186 3188 3189 3188 3189 3192 3193 3194 3195 3195 3195 3195 3195 3194 3193 3191 3188 3185 3182 3182 3179
3176 3178 3181 3182 3185 3186 3187 3187 3186 3185 3183 3180 3179 3177 3178 3179 3183 3186 3186 3184 3183 3185 3186 3186 3187 3188 3190 3190 3190 3192 3192 3193 3194 3194 3194 3193 3193 3193 3191 3191 3188 3186 3181 3180
3171 3176 3178 3179 3182 3184 3185 3187 3186 3185 3181 3179 3178 3177 3177 3177 3178 3180 3183 3182 3182 3185 3185 3188 3188 3190 3191 3189 3188 3189 3190 3191 3191 3191 3192 3192 3192 3192 3191 3189 3187 3183 3181 3181
3168 3171 3174 3176 3179 3182 3184 3184 3184 3183 3181 3180 3178 3178 3175 3175 3174 3174 3178 3180 3182 3183 3184 3187 3186 3189 3188 3189 3187 3186 3187 3186 3187 3187 3188 3190 3190 3188 3188 3188 3187 3184 3181 3179
3164 3166 3169 3172 3175 3178 3181 3181 3181 3180 3179 3178 3177 3179 3174 3174 3173 3172 3172 3174 3179 3181 3184 3185 3184 3186 3185 3185 3186 3186 3187 3186 3187 3187 3187 3187 3189 3186 3186 3187 3187 3184 3181 3179
3160 3161 3165 3168 3172 3175 3176 3178 3179 3178 3176 3177 3175 3178 3174 3173 3171 3170 3169 3171 3174 3176 3179 3181 3183 3185 3183 3180 3184 3184 3184 3184 3185 3185 3184 3185 3185 3185 3183 3183 3183 3181 3179 3177
3155 3159 3162 3165 3168 3170 3173 3175 3176 3176 3174 3172 3173 3176 3172 3171 3169 3168 3168 3168 3169 3173 3176 3178 3181 3182 3177 3178 3180 3180 3181 3178 3180 3182 3180 3179 3183 3180 3179 3179 3180 3180 3177 3175
3153 3157 3157 3160 3164 3167 3169 3172 3172 3175 3171 3172 3173 3172 3170 3169 3168 3167 3166 3166 3167 3170 3172 3173 3176 3176 3175 3175 3176 3177 3177 3175 3173 3174 3174 3176 3172 3173 3175 3176 3176 3175 3173 3172
3148 3151 3153 3155 3159 3165 3164 3167 3169 3170 3169 3171 3170 3169 3168 3167 3166 3165 3165 3165 3166 3167 3169 3170 3172 3174 3174 3173 3171 3173 3175 3172 3169 3170 3171 3172 3173 3171 3171 3172 3172 3170 3168 3166
3146 3149 3151 3153 3155 3159 3160 3162 3165 3165 3167 3166 3166 3166 3165 3164 3164 3164 3163 3163 3164 3166 3166 3167 3168 3171 3171 3169 3168 3169 3170 3170 3168 3169 3169 3170 3171 3170 3168 3169 3168 3165 3164 3161
3142 3147 3150 3150 3152 3154 3156 3157 3159 3160 3161 3159 3160 3163 3162 3161 3161 3161 3161 3161 3163 3164 3165 3165 3166 3168 3168 3167 3167 3167 3167 3166 3167 3169 3169 3168 3167 3165 3165 3163 3161 3158 3155 3153
3137 3142 3144 3146 3148 3149 3152 3153 3155 3156 3159 3157 3159 3159 3159 3159 3159 3159 3158 3160 3160 3161 3162 3164 3164 3166 3166 3166 3166 3166 3165 3166 3167 3168 3166 3164 3162 3161 3159 3156 3153 3151 3149 3146
3132 3136 3139 3142 3144 3144 3145 3148 3151 3152 3152 3153 3155 3156 3155 3155 3155 3155 3155 3158 3158 3159 3160 3162 3162 3164 3166 3166 3165 3165 3165 3166 3165 3164 3162 3160 3158 3155 3152 3150 3147 3143 3139 3135
3128 3130 3132 3134 3137 3140 3142 3144 3145 3147 3148 3148 3148 3150 3150 3150 3151 3151 3152 3154 3156 3157 3158 3160 3161 3162 3163 3164 3164 3164 3163 3163 3161 3159 3157 3155 3153 3150 3146 3142 3137 3135 3133 3130
3123 3125 3128 3130 3132 3135 3137 3139 3140 3141 3142 3142 3144 3145 3146 3145 3146 3148 3150 3151 3153 3154 3156 3157 3159 3160 3159 3160 3160 3160 3160 3160 3158 3156 3154 3150 3145 3141 3138 3136 3135 3132 3129 3126
3118 3121 3123 3125 3127 3129 3130 3132 3134 3136 3136 3137 3138 3140 3141 3141 3142 3143 3145 3147 3149 3150 3153 3155 3156 3156 3157 3158 3158 3157 3156 3154 3151 3147 3143 3141 3139 3137 3135 3131 3128 3125 3123 3120
3116 3117 3118 3120 3121 3124 3125 3126 3128 3130 3131 3132 3133 3134 3134 3135 3137 3139 3142 3145 3147 3149 3150 3152 3154 3154 3154 3154 3154 3153 3151 3149 3145 3143 3141 3139 3136 3132 3130 3128 3126 3124 3122 3120
3112 3113 3114 3115 3117 3119 3118 3121 3123 3125 3127 3129 3129 3129 3131 3133 3134 3137 3139 3141 3144 3146 3148 3150 3151 3151 3152 3152 3151 3150 3148 3146 3143 3140 3138 3136 3133 3131 3129 3127 3125 3123 3120 3117
3109 3110 3110 3111 3111 3111 3112 3115 3119 3121 3123 3124 3125 3126 3127 3129 3132 3134 3137 3139 3141 3143 3145 3146 3147 3148 3149 3149 3148 3147 3145 3143 3140 3138 3136 3133 3129 3127 3125 3123 3122 3121 3119 3115
3104 3105 3108 3107 3107 3107 3109 3111 3114 3117 3117 3119 3121 3122 3123 3125 3128 3131 3134 3136 3138 3139 3141 3142 3144 3145 3146 3145 3143 3141 3139 3136 3134 3133 3130 3128 3125 3124 3124 3123 3121 3119 3115 3112
3099 3100 3101 3102 3104 3103 3105 3109 3112 3115 3118 3116 3117 3119 3120 3123 3127 3129 3131 3133 3135 3137 3139 3139 3140 3141 3141 3139 3138 3137 3134 3132 3131 3129 3128 3126 3124 3123 3122 3120 3118 3115 3112 3109
3097 3097 3097 3098 3101 3102 3102 3105 3108 3109 3108 3109 3111 3114 3118 3122 3123 3126 3128 3130 3133 3135 3135 3137 3137 3138 3137 3136 3135 3133 3131 3130 3129 3128 3125 3123 3123 3121 3119 3117 3115 3112 3109 3106
3091 3092 3094 3095 3095 3097 3099 3101 3102 3102 3103 3103 3105 3110 3114 3117 3121 3123 3125 3128 3130 3132 3133 3134 3134 3134 3134 3133 3131 3130 3129 3126 3125 3123 3122 3121 3120 3118 3116 3114 3112 3109 3107 3104
3085 3085 3086 3089 3092 3093 3094 3096 3098 3099 3102 3102 3105 3108 3111 3112 3117 3120 3123 3126 3127 3129 3130 3131 3131 3131 3130 3130 3128 3126 3125 3123 3122 3121 3121 3119 3117 3116 3114 3113 3111 3108 3105 3102
3079 3081 3081 3083 3086 3087 3089 3091 3092 3095 3098 3101 3105 3108 3109 3111 3115 3118 3121 3123 3124 3126 3128 3128 3129 3128 3127 3125 3124 3122 3121 3120 3120 3120 3118 3116 3115 3113 3112 3110 3107 3105 3102 3100
3074 3077 3079 3079 3081 3083 3083 3084 3088 3090 3093 3097 3099 3107 3109 3111 3113 3115 3118 3119 3121 3123 3125 3126 3125 3124 3123 3121 3120 3119 3118 3118 3117 3116 3115 3114 3112 3111 3109 3107 3104 3102 3099 3096
Wind_Speed
21 19 15 9 4 3 6 5 8 10 17 13 15 17 19 14 10 9 9 10 15 15 13 13 9 7 11 10 9 7 5 5 5 3 1 3 5 7 7 16 25 25 17 19
22 23 20 16 11 8 6 7 9 11 14 14 13 15 14 19 15 9 11 13 13 12 14 11 4 7 10 10 9 6 6 4 3 2 1 1 3 6 10 10 12 11 22 10
28 24 26 21 15 12 10 7 8 12 16 15 10 12 12 14 17 17 18 16 17 15 17 5 4 8 11 11 10 10 8 6 5 4 3 3 3 6 10 10 5 7 7 8
27 28 28 22 19 18 13 10 9 12 14 7 7 5 10 8 12 17 20 24 20 18 15 14 7 1 12 18 16 14 13 13 11 10 9 8 6 6 9 11 9 10 8 11
23 25 32 34 27 22 16 16 11 14 14 7 7 4 8 6 7 7 13 24 23 20 15 19 14 11 18 21 20 16 14 15 14 13 13 12 12 9 10 7 6 9 13 15
16 14 15 21 21 18 15 15 10 13 3 5 5 9 8 7 9 8 10 16 23 23 22 18 17 7 18 13 21 23 21 19 18 17 16 15 13 16 10 7 8 11 15 16
18 21 15 15 15 18 15 9 6 4 3 1 4 6 10 12 10 7 6 11 17 18 19 19 14 7 20 14 16 13 21 23 23 28 29 27 19 18 11 8 9 14 16 17
17 10 25 24 18 10 15 14 8 5 3 1 5 5 6 7 5 3 5 7 8 8 11 16 10 11 15 14 15 13 14 15 18 27 39 22 21 11 10 10 16 19 20 21
11 13 7 12 24 14 13 12 12 7 4 3 5 9 9 6 7 1 3 5 5 5 5 9 8 10 11 14 17 18 20 17 15 12 22 26 18 11 11 14 21 21 23 27
13 3 13 9 14 20 12 11 7 7 5 5 4 6 8 10 7 4 5 8 6 6 3 4 6 9 10 12 14 16 16 19 9 15 7 11 17 14 14 19 22 23 26 29
23 14 8 19 13 12 14 14 8 8 7 5 5 5 8 5 8 7 10 9 9 5 4 5 6 8 3 6 5 6 11 9 5 6 12 15 15 16 20 25 26 28 31 34
25 15 20 17 17 16 9 13 9 9 7 9 6 9 8 8 13 12 14 13 8 5 5 6 4 4 1 2 3 4 2 4 8 12 12 14 16 19 24 26 29 31 34 37
21 17 13 9 12 16 18 16 15 17 15 14 12 12 14 14 16 17 15 15 10 9 8 7 5 5 4 3 3 4 5 8 11 13 14 16 19 22 26 30 33 34 34 32
13 20 18 17 11 13 18 17 14 15 10 15 20 21 20 19 19 19 16 15 13 11 11 9 5 5 5 5 6 8 9 9 10 12 17 21 25 28 30 31 31 30 30 29
23 19 21 20 18 18 19 20 18 15 19 15 17 18 16 20 15 13 16 15 12 10 12 9 6 6 7 8 10 12 11 11 13 17 20 24 25 25 25 25 24 24 22 22
15 12 21 23 21 20 21 22 15 17 20 20 19 22 15 20 16 16 18 13 12 10 12 8 6 8 9 12 13 11 13 15 19 23 26 25 24 22 22 23 23 23 23 22
2 7 17 14 21 18 17 24 21 19 16 13 18 19 20 21 20 20 13 11 11 10 12 10 9 10 11 10 11 13 15 19 23 24 23 22 21 21 22 21 20 19 19 19
8 6 8 7 9 8 15 17 17 18 13 13 16 14 16 19 16 16 14 13 12 10 12 11 10 11 10 11 12 15 18 20 22 20 19 18 16 16 15 16 16 17 19 19
14 14 10 6 14 10 16 17 21 21 19 19 17 15 16 19 19 18 17 17 14 13 13 12 11 10 10 12 14 16 18 21 19 17 16 15 15 14 15 16 17 17 18 18
14 19 13 14 6 8 12 16 18 21 19 21 20 18 19 26 19 14 12 13 15 15 14 12 11 10 11 13 16 19 23 21 19 18 17 14 13 13 14 15 15 16 16 17
6 6 18 18 9 9 15 16 15 14 15 16 25 22 24 24 12 13 12 11 13 13 12 11 10 10 12 16 18 22 21 19 17 16 14 11 11 12 13 14 14 14 13 14
14 12 16 12 10 9 16 14 15 17 23 26 29 26 25 21 19 14 11 9 10 11 10 10 10 12 14 16 20 21 18 17 14 13 11 11 12 12 12 12 11 11 12 15
20 23 20 19 14 22 16 15 13 13 21 20 24 30 25 19 16 12 9 7 8 8 9 11 12 13 15 18 20 18 17 14 12 11 10 11 12 10 10 10 11 13 15 15
24 22 23 25 25 17 21 19 16 12 16 9 20 26 24 21 18 12 8 6 5 8 11 14 13 13 15 18 17 16 15 12 11 10 9 9 7 8 8 9 11 13 13 13
23 19 18 18 15 16 22 22 24 19 18 10 13 25 26 23 15 10 8 6 6 9 13 14 13 14 17 16 15 15 12 10 9 8 7 5 5 6 7 10 11 12 14 15
21 19 16 16 14 15 17 25 30 26 27 23 23 32 28 20 14 14 12 9 9 10 13 13 13 15 16 14 13 12 10 9 7 7 4 3 4 7 9 11 14 16 17 19
Wind_Direction
212 222 228 230 218 159 190 236 311 4 357 325 312 292 280 265 228 188 153 169 155 154 147 143 148 170 158 155 151 145 140 135 124 98 2 5 345 329 345 10 23 28 309 356
215 222 233 243 246 246 262 297 349 348 356 353 319 303 285 270 263 247 175 166 162 179 165 158 71 225 214 182 166 157 159 169 176 153 128 29 337 312 308 316 333 336 48 359
222 223 236 243 246 255 274 310 340 348 346 338 330 299 293 283 262 236 211 192 182 178 187 173 337 225 224 199 179 181 195 197 201 219 229 254 290 321 313 303 307 331 326 324
228 225 231 242 244 250 267 272 313 334 337 323 325 302 292 299 278 257 227 217 203 194 198 170 106 219 250 235 210 196 197 209 213 222 241 268 287 307 323 339 359 354 351 342
221 231 227 237 249 254 255 264 294 315 312 296 271 247 285 275 311 294 253 235 221 219 204 208 236 316 318 242 227 219 230 245 242 248 252 260 282 288 301 332 333 356 357 354
214 222 227 234 227 232 240 255 288 301 273 224 238 212 278 276 310 339 264 248 238 235 230 246 250 343 311 249 235 241 245 247 266 270 271 258 262 284 291 318 337 348 347 343
217 209 197 198 205 220 230 236 247 254 200 267 272 203 256 269 297 346 275 255 245 246 254 266 277 258 283 296 234 265 251 249 250 264 261 268 253 249 268 298 310 317 326 340
211 220 225 222 220 224 219 217 212 246 224 321 193 235 261 292 291 24 304 258 238 240 268 271 267 246 274 289 258 277 284 287 279 276 264 271 224 237 250 280 296 307 312 318
196 220 207 226 229 202 215 202 212 215 257 226 210 250 268 311 296 177 253 223 206 218 238 258 246 244 265 275 275 280 281 292 314 276 252 263 263 241 253 290 302 299 308 317
213 168 203 207 176 204 203 205 191 199 196 234 208 253 255 304 297 254 210 196 201 185 204 244 218 222 250 279 279 272 285 311 316 232 247 260 258 262 269 295 298 298 302 307
219 217 201 202 203 202 205 201 201 194 204 245 243 239 278 279 277 239 222 210 200 190 176 180 172 175 216 277 280 293 297 319 248 291 278 280 278 278 279 293 303 304 306 307
221 221 227 220 205 213 230 207 234 223 207 209 234 254 225 285 305 257 231 197 211 212 202 193 171 185 161 174 290 272 321 286 257 274 286 290 292 293 294 300 306 305 303 305
218 212 210 212 229 235 241 236 230 231 241 227 223 248 259 262 289 255 225 196 212 212 209 198 184 189 179 199 221 256 269 272 271 277 290 302 302 302 306 304 302 306 313 315
211 216 217 221 226 218 226 233 229 232 224 228 228 251 250 263 269 253 224 212 214 214 205 194 191 203 227 246 260 278 286 283 289 299 306 304 306 305 306 309 316 316 315 316
215 219 232 241 251 249 242 241 260 264 230 225 249 252 256 257 258 252 232 221 224 225 202 199 213 239 263 275 282 291 285 289 295 300 304 308 312 314 315 314 312 315 318 320
211 213 229 245 249 252 254 253 255 267 255 246 233 244 251 250 231 223 227 226 237 226 207 211 236 245 250 260 272 276 290 309 317 320 323 322 319 316 316 321 327 331 332 333
184 210 219 234 247 242 245 245 251 255 233 249 242 240 235 228 233 226 223 224 222 215 212 223 239 244 254 260 274 291 311 320 322 321 317 315 317 322 324 324 327 329 327 328
257 254 220 218 209 221 244 247 243 219 229 256 241 234 240 235 215 202 204 210 215 220 213 231 236 236 241 267 289 306 313 317 318 317 315 314 318 318 323 328 328 328 328 325
252 242 224 196 207 241 224 227 222 236 242 237 221 212 207 197 194 206 210 212 215 215 225 237 237 239 261 281 292 305 317 321 319 318 315 319 326 329 331 330 327 322 319 323
235 232 215 213 199 206 221 207 210 226 239 233 211 212 220 200 199 203 202 218 222 232 237 232 236 249 270 291 312 323 322 323 321 318 321 326 329 332 324 318 317 320 327 331
209 228 225 229 233 228 213 224 225 210 231 236 222 218 212 199 198 201 208 212 216 228 231 235 251 276 299 310 315 314 318 316 314 317 314 319 322 318 317 320 325 329 337 343
246 250 256 241 225 246 194 201 223 266 251 245 227 213 197 185 196 200 202 202 218 231 238 247 265 288 300 305 309 312 311 306 309 305 310 316 314 318 324 328 333 338 341 343
254 244 251 243 264 228 223 240 265 265 262 255 212 200 194 206 200 200 194 191 205 223 244 258 274 286 298 307 310 305 298 302 302 303 308 310 315 326 333 336 340 339 337 336
247 244 235 243 252 248 225 231 239 235 236 206 208 204 208 214 203 205 198 198 216 244 248 256 272 287 301 306 299 295 297 296 293 298 303 308 323 336 345 346 340 340 342 338
233 245 239 233 234 249 225 237 223 221 219 205 196 209 207 205 207 215 211 209 237 248 250 252 272 290 300 299 293 290 288 282 286 288 294 312 332 342 343 342 343 341 337 333
232 243 256 256 243 260 232 229 224 217 210 229 221 206 199 208 209 204 218 244 255 258 251 259 276 294 297 288 285 281 272 271 274 275 288 329 336 337 341 342 340 336 333 335